Observations
| Time | Sensor | AQI | SAQ | Temp °C | Hum % | Pres Pa | CO μg/m³ | H₂S μg/m³ | NO μg/m³ | NO₂ μg/m³ | O₃ μg/m³ | SO₂ μg/m³ | CO₂e PPM | VOC PPM | PM1 μg/m³ | PM2.5 μg/m³ | PM4 μg/m³ | PM10 μg/m³ | TPS µm |
|---|---|---|---|---|---|---|---|---|---|---|---|---|---|---|---|---|---|---|---|
| Thursday 13 August 2026 | |||||||||||||||||||
| 02:36 | Trim Patrick St | 2 | 20.7 | 73 | 38,459 | 0 | 13.39 | 1.09 | 37.38 | 28.57 | 5.05 | 7.14 | 11.43 | 12.57 | |||||
| 02:36 | Trim Market St | 3 | 21.3 | 68 | 55,954 | 0.03 | 0.67 | 1.06 | 23.35 | 48.18 | 0 | 4.28 | 5.6 | 8.81 | |||||
| 02:35 | Trim Patrick St | 2 | 20.7 | 72 | 38,459 | 0 | 10.96 | 1.1 | 24.08 | 39.03 | 5.88 | 8 | 11.45 | 12.59 | |||||
| 02:35 | Trim Market St | 3 | 21.3 | 68 | 56,036 | 0.01 | 0 | 1.05 | 19.29 | 59.15 | 0 | 4.28 | 5.11 | 7.53 | |||||
| 02:34 | Trim Patrick St | 2 | 20.7 | 72 | 38,459 | 0 | 13.02 | 1.1 | 27.31 | 41.61 | 5.94 | 6.29 | 10.73 | 11.8 | |||||
| 02:33 | Trim Patrick St | 2 | 20.7 | 72 | 38,458 | 0 | 11.41 | 1.09 | 29.29 | 35.57 | 5.65 | 6.29 | 10.02 | 11.02 | |||||
| 02:32 | Trim Market St | 3 | 21.3 | 68 | 56,097 | 0.01 | 0.88 | 1.06 | 24.61 | 53.82 | 0 | 3.56 | 5.13 | 7.53 | |||||
| 02:32 | Trim Patrick St | 2 | 20.7 | 72 | 38,457 | 0 | 12.73 | 1.09 | 23.26 | 41.86 | 5.96 | 6.29 | 12.18 | 13.4 | |||||
| 02:31 | Trim Market St | 3 | 21.3 | 68 | 56,166 | 0.02 | 0.35 | 1.06 | 23.19 | 50.66 | 0 | 2.85 | 5.13 | 7.53 | |||||
| 02:31 | Trim Patrick St | 2 | 20.7 | 72 | 38,456 | 0 | 16.21 | 1.09 | 26.82 | 40.34 | 6.23 | 7.14 | 12.18 | 13.4 | |||||
| 02:30 | Trim Market St | 3 | 21.3 | 67 | 56,250 | 0.02 | 0.64 | 1.07 | 22.16 | 51.63 | 0 | 3.56 | 5.63 | 8.17 | |||||
| 02:30 | Trim Patrick St | 2 | 20.7 | 72 | 38,454 | 0 | 15.92 | 1.08 | 51.21 | 20.64 | 4.97 | 7.14 | 11.46 | 12.61 | |||||
| 02:29 | Trim Market St | 3 | 21.3 | 67 | 56,317 | 0.02 | 1.88 | 1.07 | 25.86 | 54.24 | 0 | 2.85 | 4.65 | 6.89 | |||||
| 02:29 | Trim Patrick St | 2 | 20.7 | 72 | 38,452 | 0 | 12.81 | 1.08 | 25.83 | 42.36 | 5.85 | 8.86 | 12.19 | 13.41 | |||||
| 02:28 | Trim Market St | 3 | 21.3 | 67 | 56,374 | 0.01 | 1.8 | 1.08 | 26.78 | 52.93 | 0 | 3.56 | 5.64 | 8.17 | |||||
| 02:28 | Trim Patrick St | 2 | 20.6 | 72 | 38,449 | 0 | 15.13 | 1.08 | 35.39 | 33.34 | 5.66 | 6.29 | 11.49 | 12.63 | |||||
| 02:27 | Trim Market St | 3 | 21.3 | 67 | 56,444 | 0.01 | 0.72 | 1.07 | 24.23 | 52.18 | 0 | 3.56 | 5.15 | 7.53 | |||||
| 02:27 | Trim Patrick St | 2 | 20.7 | 72 | 38,445 | 0 | 15.6 | 1.07 | 22.88 | 43.48 | 6.1 | 5.43 | 10.05 | 11.06 | |||||
| 02:26 | Trim Market St | 3 | 21.3 | 67 | 56,508 | 0.02 | 0.8 | 1.07 | 23.75 | 55.72 | 0 | 3.56 | 4.18 | 6.24 | |||||
| 02:26 | Trim Patrick St | 2 | 20.7 | 72 | 38,440 | 0 | 15.13 | 1.06 | 54.56 | 18.72 | 4.94 | 4.57 | 9.34 | 10.28 | |||||